Bangor, ME

2:27 PM EST on February 26, 2017 (GMT -0500)
Bangor International

Weather History for KBGR - March, 2013

Change the Weather History Date:

Wednesday, March 6, 2013

  Actual Average Record
Temperature  
Mean Temperature 34 °F 27 °F  
Max Temperature 37 °F 37 °F 57 °F (1930)
Min Temperature 31 °F 17 °F -14 °F (2015)
Degree Days  
Heating Degree Days 31 38  
Month to date heating degree days 184 235  
Since 1 July heating degree days 5561 5881  
Cooling Degree Days 0 0  
Month to date cooling degree days 0 0  
Year to date cooling degree days 0 0  
Moisture  
Dew Point 27 °F    
Average Humidity 78    
Maximum Humidity 96    
Minimum Humidity 59    
Precipitation  
Precipitation 0.01 in 0.10 in 1.26 in (1943)
Month to date precipitation 0.52 0.58  
Year to date precipitation 3.43 5.99  
Snow  
Snow T in 0.50 in 5.20 in (1993)
Month to date snowfall 3.9 2.8  
Since 1 July snowfall 63.4 53.5  
Snow Depth 2.00 in    
Sea Level Pressure  
Sea Level Pressure 30.26 in    
Wind  
Wind Speed 11 mph (NE)    
Max Wind Speed 20 mph    
Max Gust Speed 26 mph    
Visibility 8 miles    
Events Snow    
T = Trace of Precipitation, MM = Missing Value Source: NWS Daily Summary

Daily Weather History Graph

Daily Weather History Graph

Search for Another Location

Airport or City:

Trip Planner

Search our weather history database for the weather conditions in past years. The results will help you decide how hot, cold, wet, or windy it might be!

Date:

Astronomy

Mar. 06, 2013 Rise Set
Actual Time 6:03 AM EST 5:29 PM EST
Civil Twilight 5:34 AM EST 5:59 PM EST
Nautical Twilight 5:00 AM EST 6:33 PM EST
Astronomical Twilight 4:26 AM EST 7:07 PM EST
Moon 2:20 AM EST (3/6) 11:57 AM EST (3/6)
Length of Visible Light 12h 24m
Length of Day
11h 26m
Waning Crescent, 30% of the Moon is Illuminated
Mar 6
Waning Crescent
Mar 11
New
Mar 19
First Quarter
Mar 27
Full
Apr 3
Last Quarter

Hourly Weather History & Observations

Time (EST) Temp. Windchill Dew Point Humidity Pressure Visibility Wind Dir Wind Speed Gust Speed Precip Events Conditions
12:06 AM 33.8 °F 26.4 °F 32.0 °F 93% 30.16 in 9.0 mi NNE 9.2 mph - 0.00 in Snow Light Snow
12:53 AM 34.0 °F 25.5 °F 30.9 °F 89% 30.18 in 9.0 mi NE 11.5 mph - 0.00 in Snow Light Snow
1:29 AM 33.8 °F 26.4 °F 30.2 °F 87% 30.19 in 9.0 mi NNE 9.2 mph - 0.00 in Snow Light Snow
1:53 AM 33.1 °F 25.5 °F 30.9 °F 92% 30.19 in 9.0 mi NNE 9.2 mph - 0.00 in Snow Light Snow
2:23 AM 33.8 °F 25.8 °F 30.2 °F 87% 30.19 in 7.0 mi NE 10.4 mph - 0.00 in Snow Light Snow
2:53 AM 33.1 °F 23.9 °F 30.9 °F 92% 30.21 in 8.0 mi NE 12.7 mph - 0.00 in Snow Light Snow
3:32 AM 33.8 °F 23.9 °F 30.2 °F 87% 30.21 in 9.0 mi NE 15.0 mph - 0.00 in Snow Light Snow
3:53 AM 33.1 °F 24.9 °F 30.0 °F 89% 30.22 in 9.0 mi NE 10.4 mph - 0.00 in Snow Light Snow
4:53 AM 33.1 °F 23.9 °F 30.0 °F 89% 30.24 in 9.0 mi NNE 12.7 mph - 0.00 in Snow Light Snow
5:53 AM 32.0 °F 23.6 °F 28.9 °F 88% 30.26 in 10.0 mi NE 10.4 mph - 0.00 in   Mostly Cloudy
6:53 AM 30.9 °F 21.7 °F 28.0 °F 89% 30.26 in 10.0 mi NNE 11.5 mph - N/A   Scattered Clouds
7:25 AM 32.0 °F 23.6 °F 28.4 °F 87% 30.26 in 10.0 mi NE 10.4 mph - N/A   Overcast
7:53 AM 32.0 °F 23.6 °F 28.0 °F 85% 30.27 in 10.0 mi NNE 10.4 mph - N/A   Overcast
8:53 AM 33.1 °F 24.9 °F 28.0 °F 82% 30.28 in 9.0 mi NE 10.4 mph - 0.00 in Snow Light Snow
9:53 AM 35.1 °F 25.9 °F 28.0 °F 76% 30.28 in 10.0 mi ENE 13.8 mph 24.2 mph 0.00 in   Overcast
10:53 AM 36.0 °F 27.5 °F 27.0 °F 70% 30.27 in 9.0 mi ENE 12.7 mph 20.7 mph 0.00 in   Overcast
11:45 AM 37.4 °F 29.8 °F 26.6 °F 65% 30.28 in 9.0 mi NE 11.5 mph 19.6 mph 0.00 in   Overcast
11:53 AM 37.0 °F 27.7 °F 25.0 °F 62% 30.29 in 10.0 mi East 16.1 mph 23.0 mph 0.00 in   Overcast
12:53 PM 36.0 °F 28.0 °F 26.1 °F 67% 30.28 in 9.0 mi ENE 11.5 mph 20.7 mph 0.00 in Snow Light Snow
1:53 PM 35.1 °F 25.5 °F 26.1 °F 70% 30.28 in 8.0 mi ENE 15.0 mph 20.7 mph 0.00 in Snow Light Snow
2:53 PM 34.0 °F 24.2 °F 27.0 °F 75% 30.27 in 6.0 mi East 15.0 mph - 0.00 in Snow Light Snow
3:13 PM 33.8 °F 24.8 °F 28.4 °F 81% 30.27 in 1.8 mi NE 12.7 mph 18.4 mph 0.00 in Snow Light Snow
3:23 PM 32.0 °F 23.0 °F 28.4 °F 87% 30.27 in 1.0 mi ENE 11.5 mph 23.0 mph 0.00 in Snow Light Snow
3:27 PM 32.0 °F 21.2 °F 28.4 °F 87% 30.27 in 3.0 mi ENE 16.1 mph 23.0 mph 0.00 in Snow Light Snow
3:34 PM 32.0 °F 21.6 °F 28.4 °F 87% 30.28 in 2.0 mi ENE 15.0 mph 25.3 mph 0.00 in Snow Light Snow
3:53 PM 32.0 °F 22.1 °F 28.9 °F 88% 30.29 in 1.0 mi NE 13.8 mph 21.9 mph 0.00 in Snow Light Snow
4:08 PM 32.0 °F 23.6 °F 28.4 °F 87% 30.28 in 8.0 mi ENE 10.4 mph - 0.01 in Snow Light Snow
4:53 PM 33.1 °F 23.4 °F 26.1 °F 75% 30.29 in 10.0 mi NE 13.8 mph - 0.01 in   Overcast
5:17 PM 33.8 °F 25.8 °F 26.6 °F 75% 30.29 in 10.0 mi NE 10.4 mph - N/A   Overcast
5:53 PM 33.1 °F 25.5 °F 25.0 °F 72% 30.31 in 10.0 mi NE 9.2 mph - N/A   Overcast
6:53 PM 33.1 °F 25.5 °F 24.1 °F 70% 30.32 in 10.0 mi ENE 9.2 mph - N/A   Overcast
7:53 PM 32.0 °F 24.2 °F 24.1 °F 73% 30.32 in 10.0 mi NE 9.2 mph - N/A   Overcast
8:53 PM 32.0 °F 22.1 °F 21.9 °F 66% 30.30 in 10.0 mi NE 13.8 mph - N/A   Overcast
9:53 PM 32.0 °F 22.5 °F 21.9 °F 66% 30.29 in 10.0 mi NNE 12.7 mph 21.9 mph N/A   Overcast
10:53 PM 30.9 °F 20.2 °F 21.0 °F 67% 30.27 in 10.0 mi NE 15.0 mph 23.0 mph N/A   Overcast
11:53 PM 30.9 °F 21.2 °F 21.0 °F 67% 30.26 in 10.0 mi NE 12.7 mph - N/A   Overcast